Location: Bessat
(45.8735°N, 1.9924°E)
Time: 07:52:22
(UTC+00:00)

Cosmos 1934 Rocket - Pass Details

Date: 11 May 2021
Orbit: 937 x 1000 km, 83.0° (Epoch: 20 June)

Event Time Altitude Azimuth Distance (km) Brightness Sun altitude
Rises 23:32:12 0° 355° (N) 3,656 8.4 -25.9°
Reaches altitude 10° 23:34:50 10° 1° (N) 2,697 7.3 -25.9°
Maximum altitude 23:40:46 49° 76° (ENE) 1,208 4.5 -26.0°
Enters shadow 23:42:12 41° 114° (ESE) 1,337 4.5 -26.0°
